Terminal Aerodrome Forecast
Issued by NWS Atlanta, GA

Home | Current Version | Previous Version | Text Only | Print | Product List | Glossary On
Versions: 1 2 3 4 5 6 7 8 9 10 11 12 13 14 15 16 17 18 19 20 21 22 23 24 25 26 27 28 29 30 31 32 33 34 35 36 37
000
FTAK31 PAJN 200500
TAFAHN
TAF
PAHN 200523Z 2006/2106 09010G19KT P6SM VCSH SCT015 OVC060
     FM201000 VRB04KT P6SM VCSH BKN015 BKN070
     FM201400 30006KT P6SM -RA BKN020 OVC050
     FM202200 09008KT P6SM -SHRA SCT020 BKN030 OVC050
     FM210000 11012G22KT P6SM -SHRA SCT020 BKN040 OVC050
     FM210400 11012KT P6SM -SHRA SCT020 OVC050
      AMD LTD TO CLD VIS AND WIND=

USA.gov is the U.S. government's official web portal to all federal, state and local government web resources and services.